Location: Bay Harbour
(38.2612°N, 75.2555°W)
Time: 01:37:28
(UTC+00:00)

FengYun 1-2 T - Pass Details

Date: 29 October 2020
Orbit: 846 x 882 km, 98.7° (Epoch: 02 December)

Event Time Altitude Azimuth Distance (km) Brightness Sun altitude
Rises 22:54:27 0° 167° (SSE) 3,466 7.4 -10.4°
Reaches altitude 10° 22:56:50 10° 168° (SSE) 2,530 6.7 -10.9°
Maximum altitude 23:02:29 82° 257° (WSW) 891 4.4 -12.0°
Drops below altitude 10° 23:08:09 10° 345° (NNW) 2,533 6.8 -13.1°
Sets 23:10:32 0° 346° (NNW) 3,471 7.5 -13.5°
